Flag for U.S.A. Weather past 2 weeks in Cheyenne, Wyoming, U.S.A.

Now
16 °F

Low clouds.


Feels Like: 0 °F
Forecast: 16 / 28 °F
Wind: 17 mph from North

Location: Cheyenne Airport

Current Time: Feb 1, 2015 at 5:06:33 AM

Latest Report: Feb 1, 2015 at 3:53 AM


Visibility: 10 mi

Pressure: 30.14 "Hg

Humidity: 84%

Dew point: 12 °F

Location of CheyenneLocation

Historic Weather in Cheyenne — Graph

°F

Cheyenne temperature yesterday

Maximum temperature yesterday: 39 °F (at 2:53 PM)
Minimum temperature yesterday: 22 °F (at 11:53 PM)
Average temperature yesterday: 31 °F

Past Weeks' High & Low Weather Summary

 TemperatureHumidityPressure
High67 °F (Jan 27, 1:53 PM)89% (Jan 31, 6:53 PM)30.50 "Hg (Jan 31, 6:53 PM)
Low7 °F (Jan 22, 3:53 AM)12% (Jan 22, 1:53 PM)29.77 "Hg (Jan 31, 2:53 PM)
Average37 °F48%30.13 "Hg
* Reported Jan 17 3:53 AM — Feb 1 3:53 AM, Cheyenne, Weather by CustomWeather, © 2014

Note: Actual official high and low records may vary slightly from our data, if they occured in-between our weather recording intervals... More about our weather records

Advertising

Cheyenne weather history for previous 24 hours

 ConditionsComfort  
Time TempWeatherWind HumidityBarometerVisibility
3:53 AM
Feb 1
16 °FLow clouds.17 mph84%30.14 "Hg10 mi
2:53 AM16 °FPassing clouds.15 mph84%30.09 "Hg10 mi
1:53 AM18 °FLight snow. Partly cloudy.20 mph80%30.09 "Hg5 mi
1:00 AM21 °FLight snow. Overcast.21 mph81%29.98 "Hg5 mi
11:53 PM
Jan 31
22 °FLight snow. Mostly cloudy.22 mph78%30.07 "Hg3 mi
10:53 PM25 °FLight snow. Low clouds.25 mph81%30.02 "Hg9 mi
9:53 PM27 °FOvercast.23 mph78%29.98 "Hg10 mi
8:53 PM28 °FMostly cloudy.26 mph75%29.96 "Hg10 mi
7:53 PM30 °FPartly cloudy.24 mph75%29.91 "Hg10 mi
6:53 PM30 °FMostly cloudy.8 mph89%29.90 "Hg10 mi
5:53 PM31 °FLow clouds.10 mph85%29.87 "Hg10 mi
4:53 PM33 °FMostly cloudy.12 mph85%29.85 "Hg10 mi
3:53 PM34 °FLight snow. Overcast.7 mph79%29.83 "Hg3 mi
2:53 PM39 °FMore clouds than sun.6 mph62%29.77 "Hg10 mi
1:53 PM38 °FBroken clouds.3 mph65%29.79 "Hg10 mi
12:53 PM36 °FPartly sunny.No wind73%29.83 "Hg10 mi
11:53 AM32 °FLight snow. Low clouds.6 mph79%29.89 "Hg6 mi
10:53 AM31 °FLight snow. Mostly cloudy.7 mph82%29.93 "Hg2 mi
9:53 AM31 °FMostly cloudy.7 mph79%29.92 "Hg10 mi
8:53 AM30 °FOvercast.10 mph82%29.93 "Hg10 mi
7:53 AM30 °FLight snow. Overcast.9 mph82%29.93 "Hg4 mi
6:53 AM30 °FMostly cloudy.6 mph79%29.94 "Hg10 mi
5:53 AM30 °FMostly cloudy.7 mph79%29.92 "Hg10 mi
Weather by CustomWeather, © 2014

See weather overviewHow to use our weather pages